[[{"header":{"parameterUnit":"m.s-1","parameterCategory":1,"la1":30.2991,"la2":30.254,"lo1":-89.0895,"lo2":-89.0444,"dy":0.0017,"dx":0.0017,"nx":28,"ny":28,"refTime":"2023-11-03T09:00:00:Z","depth":0,"parameterNumber":2,"parameterNumberName":"U-component_of_WINDS"},"data":[0,0,0,0,0,0,0,0,0,0,0,0,0,0,0,0,0,0,0,0,0,0,0,0,0,0,0,0,0,0,0,0,0,0,0,0,0,0,0,0,0,0,0,0,0,0,0,0,0,0,0,0,0,0,0,0,0,0,-1.6591,-1.6593,0,-1.6726,-1.6728,-1.6729,-1.6713,-1.671,-1.6708,-1.6706,-1.6849,-1.6854,-1.686,0,0,0,0,0,0,0,0,0,0,0,0,0,-1.6322,-1.6327,-1.6591,-1.6593,-1.6595,-1.6726,-1.6728,-1.673,-1.6713,-1.671,-1.6708,-1.6705,-1.6847,-1.6854,-1.6861,0,0,0,0,0,0,0,0,0,0,0,0,0,-1.6446,-1.6329,-1.6591,-1.6602,-1.6604,-1.6726,-1.6728,-1.673,-1.6714,-1.671,-1.6707,-1.6704,-1.6845,-1.6853,-1.6862,-1.6982,0,0,-1.6888,-1.6892,0,0,0,0,0,0,0,0,-1.6439,-1.6456,-1.6599,-1.6601,-1.6604,-1.6699,-1.6685,-1.6815,-1.6714,-1.6672,-1.6706,-1.6702,-1.6802,-1.6814,-1.6847,-1.6989,-1.6995,-1.6889,-1.6895,-1.6898,-1.6901,0,0,0,0,0,0,0,-1.6431,-1.645,-1.6645,-1.6601,-1.6604,-1.6601,-1.6615,-1.671,-1.6754,-1.6676,-1.6675,-1.6691,-1.6803,-1.6838,-1.685,-1.6997,-1.6889,-1.6897,-1.6902,-1.6906,-1.7245,-1.7248,0,0,0,0,0,0,-1.6419,-1.6443,-1.664,-1.6649,-1.6512,-1.6609,-1.6624,-1.6672,-1.6753,-1.6762,-1.6693,-1.6689,-1.6825,-1.684,-1.6855,-1.7002,-1.6898,-1.6906,-1.6912,-1.7241,-1.7245,-1.7249,0,0,0,0,0,0,-1.6413,-1.6436,-1.6635,-1.6546,-1.6571,-1.6617,-1.6671,-1.6677,-1.6712,-1.6766,-1.6775,-1.6721,-1.6823,-1.6843,-1.695,-1.7007,-1.691,-1.6918,-1.7236,-1.7242,-1.7247,-1.7297,0,0,0,0,0,0,-1.6405,-1.6435,-1.648,-1.6547,-1.6576,-1.6728,-1.6674,-1.6682,-1.6727,-1.6723,-1.6795,-1.6804,-1.6822,-1.6937,-1.6959,-1.7017,-1.6925,-1.7232,-1.7239,-1.7246,-1.7291,-1.7304,-1.7315,0,0,0,0,0,-1.6396,-1.649,-1.6483,-1.6507,-1.6633,-1.6731,-1.6747,-1.6765,-1.6731,-1.6778,-1.6813,-1.6801,-1.6996,-1.6948,-1.6973,-1.7034,-1.7228,-1.7237,-1.7245,-1.7285,-1.7301,-1.7314,0,0,0,0,0,0,-1.6431,-1.6499,-1.6492,-1.661,-1.6664,-1.6728,-1.6788,-1.6781,-1.6848,-1.6842,-1.6862,-1.6879,-1.6988,-1.7021,-1.6967,-1.7155,-1.7108,-1.7121,-1.713,-1.7145,-1.7157,-1.7149,-1.6933,0,0,0,0,0,-1.6451,-1.6523,-1.6579,-1.6678,-1.6706,-1.6742,-1.6785,-1.6793,-1.6852,-1.6875,-1.6918,-1.6976,-1.705,-1.7099,-1.717,-1.7294,-1.731,-1.7348,-1.736,-1.737,-1.7383,-1.7452,-1.747,-1.7277,-1.7277,-1.7277,0,0,-1.6496,-1.6542,-1.6587,-1.6686,-1.673,-1.6805,-1.6762,-1.6843,-1.69,-1.6888,-1.6993,-1.7026,-1.7092,-1.7208,-1.7261,-1.724,-1.7439,-1.7381,-1.7388,-1.7396,-1.7462,-1.748,-1.7497,-1.7283,-1.7282,-1.7281,0,0,-1.6618,-1.6659,-1.6746,-1.679,-1.6855,-1.6878,-1.6899,-1.6963,-1.6984,-1.7088,-1.7081,-1.7149,-1.7276,-1.7324,-1.7365,-1.7501,-1.7494,-1.7524,-1.7588,-1.7655,-1.7671,-1.7684,-1.7735,-1.7753,-1.7535,-1.7536,-1.7536,0,-1.6666,-1.6779,-1.6792,-1.6875,-1.6919,-1.6909,-1.6998,-1.704,-1.7126,-1.7158,-1.7131,-1.729,-1.7334,-1.7462,-1.7495,-1.7527,-1.7553,-1.7518,-1.7667,-1.7681,-1.7694,-1.7743,-1.7762,-1.7539,-1.7539,-1.7538,-1.7538,0,-1.6836,-1.6914,-1.6976,-1.7058,-1.7109,-1.7194,-1.7222,-1.7272,-1.7275,-1.7301,-1.7408,-1.7459,-1.7541,-1.7571,-1.7576,-1.77,-1.7685,-1.7662,-1.7616,-1.7715,-1.7762,-1.778,-1.7544,-1.7543,-1.7542,-1.7541,0,0,-1.6987,-1.7072,-1.7096,-1.7133,-1.7203,-1.7264,-1.7349,-1.7427,-1.747,-1.7529,-1.7602,-1.7709,-1.7688,-1.7734,-1.7744,-1.7802,-1.7909,-1.7773,-1.7775,-1.7799,-1.8052,-1.8071,-1.8092,-1.7903,-1.7907,-1.7909,-1.8047,0,-1.7117,-1.7266,-1.728,-1.7414,-1.7487,-1.7477,-1.7551,-1.7603,-1.7628,-1.7695,-1.7723,-1.78,-1.7765,-1.7793,-1.785,-1.7884,-1.7961,-1.7874,-1.7974,-1.7977,-1.7961,-1.8116,-1.8137,-1.8264,-1.8065,-1.8068,-1.807,0,-1.729,-1.7352,-1.7494,-1.7553,-1.7584,-1.7651,-1.7723,-1.7786,-1.7844,-1.7859,-1.7909,-1.791,-1.7999,-1.7946,-1.8069,-1.801,-1.805,-1.8073,-1.8078,-1.8092,-1.8033,-1.8136,-1.8305,-1.8325,-1.8098,-1.8096,-1.8094,0,-1.7389,-1.7508,-1.7608,-1.764,-1.7711,-1.7758,-1.779,-1.7845,-1.7891,-1.7954,-1.7984,-1.8057,-1.8099,-1.8156,-1.8177,-1.8136,-1.83,-1.8248,-1.8317,-1.8317,-1.8356,-1.8354,-1.8537,-1.8376,-1.8376,-1.8375,-1.8375,0,-1.7536,-1.7624,-1.7654,-1.7716,-1.7814,-1.7828,-1.7925,-1.7954,-1.8003,-1.8071,-1.8066,-1.8131,-1.8153,-1.8222,-1.8239,-1.8339,-1.8357,-1.8373,-1.8377,-1.8376,-1.8374,-1.8406,-1.8399,-1.838,-1.8379,-1.8378,-1.8377,0,-1.7666,-1.7689,-1.7798,-1.7855,-1.7871,-1.7941,-1.7991,-1.8051,-1.8074,-1.8161,-1.8182,-1.8219,-1.83,-1.8325,-1.8423,-1.8434,-1.8553,-1.8547,-1.8533,-1.8535,-1.8603,-1.8598,-1.8816,-1.8846,-1.8662,-1.8664,-1.8665,0,-1.776,-1.7827,-1.789,-1.7935,-1.7968,-1.804,-1.8086,-1.8102,-1.815,-1.8221,-1.8273,-1.8352,-1.8416,-1.8545,-1.8582,-1.8657,-1.8655,-1.8726,-1.8667,-1.8663,-1.866,-1.8658,-1.8665,-1.8739,-1.8741,-1.8743,-1.8744,0,-1.7925,-1.7932,-1.7999,-1.8069,-1.8124,-1.818,-1.8235,-1.8272,-1.8295,-1.835,-1.8431,-1.8481,-1.8579,-1.8658,-1.8733,-1.8768,-1.8762,-1.8761,-1.8782,-1.8783,-1.8774,-1.8783,-1.8568,-1.8758,-1.8756,-1.8755,-1.8755,-1.8754,-1.8042,-1.8102,-1.8155,-1.8229,-1.8271,-1.8321,-1.8381,-1.841,-1.8477,-1.8558,-1.8562,-1.8651,-1.8706,-1.8806,-1.8844,-1.8914,-1.8894,-1.8923,-1.8931,-1.8939,-1.8946,-1.8758,-1.8928,-1.8927,-1.8927,-1.8927,-1.8926,0,-1.821,-1.8243,-1.831,-1.8386,-1.8444,-1.8428,-1.8487,-1.8537,-1.8615,-1.8666,-1.8729,-1.8822,-1.8898,-1.8939,-1.9016,-1.9064,-1.9063,-1.9084,-1.9083,-1.9092,-1.8958,-1.8934,-1.9084,-1.9084,-1.9084,-1.9084,-1.9084,-1.9084,-1.8305,-1.8405,-1.8418,-1.8538,-1.8571,-1.8656,-1.8692,-1.8738,-1.878,-1.8884,-1.8946,-1.8971,-1.9019,-1.9098,-1.9168,-1.9178,-1.9208,-1.9232,-1.9241,-1.9117,-1.9101,-1.9085,-1.9063,-1.9238,-1.9238,-1.9369,-1.937,-1.9371]},{"header":{"parameterUnit":"m.s-1","parameterCategory":1,"la1":30.2991,"la2":30.254,"lo1":-89.0895,"lo2":-89.0444,"dy":0.0017,"dx":0.0017,"nx":28,"ny":28,"refTime":"2023-11-03T09:00:00:Z","depth":0,"parameterNumber":3,"parameterNumberName":"V-component_of_WINDS"},"data":[0,0,0,0,0,0,0,0,0,0,0,0,0,0,0,0,0,0,0,0,0,0,0,0,0,0,0,0,0,0,0,0,0,0,0,0,0,0,0,0,0,0,0,0,0,0,0,0,0,0,0,0,0,0,0,0,0,0,-4.1678,-4.1679,0,-4.18,-4.1802,-4.1803,-4.1793,-4.1791,-4.1789,-4.1787,-4.1905,-4.191,-4.1915,0,0,0,0,0,0,0,0,0,0,0,0,0,-4.1428,-4.1433,-4.1678,-4.168,-4.1681,-4.18,-4.1802,-4.1804,-4.1793,-4.1791,-4.1789,-4.1786,-4.1904,-4.1909,-4.1915,0,0,0,0,0,0,0,0,0,0,0,0,0,-4.1542,-4.1434,-4.1678,-4.169,-4.1693,-4.18,-4.1802,-4.1804,-4.1794,-4.1791,-4.1788,-4.1785,-4.1902,-4.1909,-4.1916,-4.2016,0,0,-4.1938,-4.1942,0,0,0,0,0,0,0,0,-4.1536,-4.1551,-4.1687,-4.169,-4.1693,-4.1779,-4.1757,-4.1875,-4.1794,-4.1755,-4.1787,-4.1784,-4.1865,-4.1875,-4.1904,-4.2022,-4.2027,-4.1939,-4.1943,-4.1947,-4.1949,0,0,0,0,0,0,0,-4.1528,-4.1546,-4.1726,-4.1689,-4.1692,-4.1688,-4.1701,-4.1779,-4.1824,-4.1758,-4.1758,-4.1773,-4.1866,-4.1897,-4.1907,-4.2029,-4.1939,-4.1945,-4.195,-4.1953,-4.2233,-4.2236,0,0,0,0,0,0,-4.1518,-4.1539,-4.1722,-4.173,-4.1606,-4.1694,-4.1709,-4.1754,-4.1823,-4.1831,-4.1775,-4.1772,-4.1886,-4.1898,-4.1911,-4.2031,-4.1947,-4.1953,-4.1958,-4.223,-4.2234,-4.2237,0,0,0,0,0,0,-4.1513,-4.1534,-4.1717,-4.1635,-4.1658,-4.1702,-4.1752,-4.1758,-4.1789,-4.1836,-4.1843,-4.1799,-4.1884,-4.19,-4.199,-4.2035,-4.1957,-4.1963,-4.2226,-4.2231,-4.2236,-4.2273,0,0,0,0,0,0,-4.1505,-4.1533,-4.1573,-4.1636,-4.1662,-4.1797,-4.1755,-4.1762,-4.1802,-4.1799,-4.186,-4.1867,-4.1883,-4.1979,-4.1998,-4.2044,-4.1969,-4.2223,-4.2229,-4.2234,-4.2268,-4.2279,-4.2288,0,0,0,0,0,-4.1497,-4.1577,-4.1575,-4.1597,-4.1714,-4.18,-4.1815,-4.1833,-4.1806,-4.1845,-4.1875,-4.1866,-4.2028,-4.1989,-4.2009,-4.2058,-4.222,-4.2227,-4.2234,-4.2264,-4.2277,-4.2287,0,0,0,0,0,0,-4.1515,-4.1586,-4.1584,-4.1688,-4.1738,-4.1798,-4.1848,-4.1846,-4.1904,-4.1898,-4.1917,-4.193,-4.202,-4.2049,-4.2004,-4.2158,-4.212,-4.2131,-4.2136,-4.2148,-4.2158,-4.2148,-4.1975,0,0,0,0,0,-4.1532,-4.1599,-4.1656,-4.1741,-4.1767,-4.1804,-4.1842,-4.1852,-4.1904,-4.1925,-4.1961,-4.201,-4.2072,-4.2112,-4.2172,-4.2273,-4.2285,-4.2317,-4.2326,-4.2334,-4.2343,-4.2396,-4.241,-4.226,-4.226,-4.226,0,0,-4.1566,-4.1613,-4.1653,-4.1747,-4.1787,-4.1853,-4.1821,-4.1893,-4.1941,-4.1935,-4.2022,-4.2051,-4.2106,-4.2202,-4.2246,-4.2228,-4.2387,-4.2343,-4.2349,-4.2353,-4.2405,-4.2419,-4.2432,-4.2265,-4.2264,-4.2263,0,0,-4.1662,-4.1705,-4.1781,-4.1823,-4.1885,-4.1909,-4.1927,-4.1988,-4.2007,-4.2096,-4.2092,-4.2149,-4.2256,-4.2295,-4.2329,-4.244,-4.2432,-4.2459,-4.2509,-4.2561,-4.2573,-4.2583,-4.262,-4.2634,-4.2468,-4.2468,-4.2469,0,-4.1695,-4.1797,-4.1819,-4.1892,-4.1932,-4.1932,-4.2007,-4.2046,-4.2123,-4.215,-4.213,-4.2264,-4.2301,-4.2405,-4.2432,-4.2461,-4.248,-4.2451,-4.257,-4.258,-4.259,-4.2626,-4.264,-4.2471,-4.2471,-4.2471,-4.247,0,-4.1834,-4.1905,-4.1958,-4.2036,-4.2082,-4.2155,-4.2186,-4.223,-4.2237,-4.2262,-4.2351,-4.2397,-4.2465,-4.2491,-4.2497,-4.2595,-4.2582,-4.2566,-4.2527,-4.2607,-4.2641,-4.2655,-4.2475,-4.2474,-4.2473,-4.2472,0,0,-4.1942,-4.2033,-4.2052,-4.2086,-4.2156,-4.2209,-4.2282,-4.2352,-4.2388,-4.2442,-4.2501,-4.2592,-4.2577,-4.2616,-4.2627,-4.2673,-4.2755,-4.2651,-4.2652,-4.2666,-4.2864,-4.2874,-4.2889,-4.2752,-4.2755,-4.2757,-4.2858,0,-4.2043,-4.2174,-4.2197,-4.231,-4.2374,-4.2376,-4.2439,-4.2487,-4.2513,-4.2569,-4.2596,-4.266,-4.2637,-4.266,-4.2706,-4.2736,-4.2795,-4.2729,-4.2804,-4.2807,-4.2788,-4.2907,-4.2918,-4.3011,-4.2872,-4.2874,-4.2876,0,-4.2177,-4.2237,-4.2357,-4.2418,-4.2446,-4.2502,-4.2567,-4.2622,-4.2676,-4.2691,-4.2735,-4.2741,-4.2813,-4.2774,-4.2874,-4.2828,-4.2861,-4.288,-4.2884,-4.2889,-4.2844,-4.2913,-4.3042,-4.3055,-4.2897,-4.2896,-4.2894,0,-4.2241,-4.2351,-4.2438,-4.2468,-4.2541,-4.258,-4.2612,-4.2664,-4.2704,-4.276,-4.2786,-4.2849,-4.2883,-4.293,-4.2952,-4.2922,-4.3049,-4.3012,-4.3061,-4.306,-4.3085,-4.3082,-4.3218,-4.3111,-4.311,-4.311,-4.311,0,-4.2349,-4.2422,-4.2467,-4.252,-4.2601,-4.2626,-4.2704,-4.2735,-4.2781,-4.2838,-4.2844,-4.2896,-4.2923,-4.2979,-4.2996,-4.3074,-4.309,-4.3102,-4.3105,-4.31,-4.3098,-4.3119,-4.3112,-4.3114,-4.3113,-4.3112,-4.3112,0,-4.2432,-4.2466,-4.256,-4.2622,-4.264,-4.2697,-4.2749,-4.2799,-4.2825,-4.2897,-4.2915,-4.2956,-4.3022,-4.3049,-4.313,-4.3141,-4.323,-4.323,-4.3212,-4.3213,-4.3259,-4.3253,-4.341,-4.3431,-4.3313,-4.3314,-4.3315,0,-4.2497,-4.2554,-4.2623,-4.2663,-4.2697,-4.2761,-4.2802,-4.2829,-4.2871,-4.2937,-4.2978,-4.3046,-4.31,-4.3205,-4.324,-4.3302,-4.3301,-4.3352,-4.331,-4.3302,-4.3298,-4.3293,-4.3298,-4.3358,-4.3359,-4.336,-4.3361,0,-4.2608,-4.2623,-4.2684,-4.2751,-4.2801,-4.2854,-4.2906,-4.2937,-4.2972,-4.3019,-4.3088,-4.3131,-4.3214,-4.3279,-4.3343,-4.3373,-4.3372,-4.3375,-4.3389,-4.3382,-4.3369,-4.3374,-4.323,-4.337,-4.3369,-4.3369,-4.3368,-4.3368,-4.2683,-4.2733,-4.279,-4.2857,-4.29,-4.2948,-4.2998,-4.3032,-4.3091,-4.3162,-4.3174,-4.3247,-4.3299,-4.3385,-4.3417,-4.3473,-4.346,-4.3481,-4.3485,-4.3489,-4.3491,-4.3363,-4.3485,-4.3485,-4.3485,-4.3485,-4.3484,0,-4.2792,-4.2829,-4.2891,-4.2965,-4.3017,-4.3016,-4.3073,-4.3116,-4.3181,-4.3231,-4.3286,-4.3364,-4.3428,-4.3469,-4.3532,-4.3569,-4.357,-4.3585,-4.358,-4.3587,-4.3501,-4.3481,-4.3583,-4.3583,-4.3583,-4.3583,-4.3583,-4.3583,-4.2854,-4.2938,-4.2959,-4.3064,-4.31,-4.3174,-4.3206,-4.325,-4.329,-4.3378,-4.3432,-4.346,-4.3505,-4.3572,-4.363,-4.364,-4.3662,-4.3677,-4.3685,-4.3604,-4.3593,-4.3583,-4.3565,-4.3682,-4.3682,-4.3766,-4.3767,-4.3768]}]]